User: anonymous   Login
Location: 5810 Zion Rd, Cleves, OH 45002, USA
(39.1922°N, 84.7113°W)
Time: 07:02:41
(UTC-05:00)
Language:

SEEDS - Orbit

View from above orbital plane
View from above orbital plane
View from above satellite
View from above satellite

Ground track
Ground track

The orbit data is extracted from the following two-line orbital elements,

1 32791U 08021J   20021.08589219  .00000335  00000-0  39267-4 0  9992
2 32791  97.5338  21.8596 0012089 233.3682 126.6425 14.90955984636350
Epoch (UTC): 21 January 2020 02:03:41
Eccentricity: 0.0012089
inclination: 97.5338°
perigee height: 586 km
apogee height: 603 km
right ascension of ascending node: 21.8596°
argument of perigee: 233.3682°
revolutions per day: 14.90955984
mean anomaly at epoch: 126.6425°
orbit number at epoch: 63635

The dashed part of the orbit path shows where the satellite is in the earth's shadow,  

DLR